STARLINK-5153, 54088

Orbit data source: Space-Track

STARLINK-5153, 54088 is a payload satellite owned by SpaceX/Seattle (US) in LEO that was launched on Thu, 20 Oct 2022 UTC via an FALCON 9 launch vehicle from the Air Force Eastern Test Range (AFETR). Payload-class satellites include a variety of spacecraft equipped with specific instruments for various scientific and technological missions. These include communications satellites like Starlink; space stations such as the ISS; scientific satellites like the Hubble; Earth observation satellites from companies like Planet Labs, Umbra, and HawkEye 360; GPS; miniature CubeSats for education and research; and military/defense satellites.

Loading next visibility...
Identifier
54088, 2022-136AP
Orbit
LEO
Last TLE update
14 hours ago
Origin
Manufacturer
SpaceX/Seattle
Mission
Operational Commercial Communications
Bus & Motor
STARLINK, Unknown motor
Mass
305 kg wet, ~290 kg dry
Launch date (UTC)
2022-10-20 (3 years ago)
Launch vehicle
FALCON 9
Launch site
Air Force Eastern Test Range (AFETR)
Object type
Payload
Rocket body
Debris
Shape & HBR
Box + 1 Pan, 8.86 m
Radar Cross Section
13.562 m², Large (>1 m²)

Expand to show TLE details & history

TLE from 14 hours ago
0 STARLINK-5153
1 54088U 22136AP  25181.85200740  .00000221  00000-0  31963-4 0  9993
2 54088  53.2187  24.7687 0001296  89.9862 270.1279 15.08837383148969
Epoch: 2025-06-30T20:26Z
TLE epoch observation values (Epoch: 2025-06-30T20:26:53.439Z)
Latitude
0.00001°
Longitude
158.89017°
Altitude
540.647 km
Speed
7.593 km/s
True Right ascension
01h 39m 04s
True Declination
0° 00' 00"
Sunlit
Object was in daylight at epoch
Visualization orbit readout
Latitude
-47.83302°
Longitude
101.09281°
Altitude
556.984 km
Speed
7.582 km/s
Apparent Right ascension
13h 49m 00s
Apparent Declination
-87° 14' 01"
Sunlit
Object is in full shadow
Visualization observer readout
Local Sidereal Time
22:05:56
Azimuth
183.051° SSW
Elevation
-41.433°
Doppler factor
1
Orbital elements
Apogee altitude
540.893 km
Perigee altitude
539.1 km
Semi-major axis
6,918.133 km
Eccentricity
0.00013
Inclination
53.2187°
RAAN
24.7687°
Arg. of periapsis
89.9862°
True anomaly
Unknown
Mean anomaly
270.1279°
Eccentric anomaly
Unknown
Mean motion
3.7719 °/min
Orbital period
95.44 mins
BSTAR
0.000031963
Loading maneuver chart data...
Loading SW <> Apogee altitude chart data...
Loading historical data...
Loading historical data...
Loading historical data...
Loading historical data...
Loading historical data...
Loading historical data...
Loading historical data...

STARLINK-5153 Visibility forecast

Observer location: undefined°, undefined°

Span
Click to sort rows by Start time (UTC) header in descending order
Start Az.
Max El. time (UTC)
Max El. Az.
Max El.
End time (UTC)
End Az.
7 mins2025-07-01 15:40:29.460Z205.306° SW2025-07-01 15:44:29.460Z123.766° SE34.33°2025-07-01 15:47:29.460Z64.935° ENE
5 mins2025-07-01 17:21:29.460Z281.124° WNW2025-07-01 17:23:29.460Z324.584° NNW26.793°2025-07-01 17:26:29.460Z27.439° NE
6 mins2025-07-01 22:22:29.460Z328.957° NNW2025-07-01 22:25:29.460Z54.936° ENE33.768°2025-07-01 22:28:29.460Z105.214° ESE
5 mins2025-07-02 00:02:29.460Z267.734° W2025-07-02 00:04:29.460Z222.275° SW23.434°2025-07-02 00:07:29.460Z173.826° S
|